星链-11292 (STARLINK-11292)

导读

STARLINK-11292是美国SpaceX星链互联网卫星项目的一员,于2024年9月20日发射升空。星链计划旨在构建覆盖全球的低轨卫星互联网星座,为全球偏远地区、海洋等传统网络覆盖盲区提供高速网络服务,该卫星入轨后将融入现有星链网络,进一步补充星座容量,提升全球卫星互联网服务覆盖密度与稳定性。

Basic Information
目录编号:
61203
目录名称:
STARLINK-11292
国际标识:
2024-171D
轨道中心:
EARTH
卫星名称:
星链-11292
卫星全名:
星链-11292 (STARLINK-11292)
卫星状态:
在轨 (已飞行632 天)
发射日期:
2024-09-20 UTC
国别 :
美国 (US)
星等 :
--
Orbit Information
数据来源 国际轨道数据 AOE轨道数据
星历时间 2026-06-14T18:28:26+0800
9小时前
查看轨道信息
2026-06-15T00:00:00+0800
4小时前
查看轨道信息
半长轴 6737.866km 6737.799km
偏心率 0.0000933 0.0000764
轨道倾角 53.160° 53.161°
近地点辐角 80.071° 205.664°
升交点赤经 59.356° 58.224°
平近点角 280.041° 16.408°
近地点 359.1km 359.147km
远地点 360.358km 360.177km
周期 91.737分钟 91.735分钟
每日圈数 15.697094 15.697328
Detailed Information
固有亮度:
5
最大亮度:
2.5
卫星平台:
Starlink V1.0
覆盖范围:
全球
运营商:
太空探索技术公司
运营商所在国:
美国
制造商(研发单位):
太空探索技术公司
制造商所在国:
美国
使用方式:
暂无
Satellite Introduction
Starlink 计划是 SpaceX 推出的全球卫星互联网项目,通过发射低轨道卫星,为全球尤其是偏远地区提供高速、低延迟的互联网服务。自 2019 年起,Starlink 已部署数千颗卫星,旨在缩小全球数字鸿沟,推动互联网普及。该项目还为军事、航空等行业提供通信支持,带来广泛经济效益。
2D Orbit Map
3D Orbit Map
Orbit Altitude Analysis Chart
Orbit Inclination Analysis Chart
Orbit Comprehensive Analysis Chart
View Comprehensive Chart